Location: Saint-Hippolyte
(43.6394°N, 4.7559°E)
Time: 15:55:03
(UTC+00:00)

GENESIS II - Pass Details

Date: 24 October 2020
Orbit: 490 x 537 km, 64.5° (Epoch: 23 November)

Event Time Altitude Azimuth Distance (km) Brightness Sun altitude
Rises 17:57:05 0° 217° (SW) 2,667 8.4 -14.1°
Reaches altitude 10° 17:59:16 10° 219° (SW) 1,785 7.5 -14.5°
Maximum altitude 18:03:16 77° 305° (NW) 556 4.4 -15.2°
Enters shadow 18:06:48 13° 31° (NNE) 1,597 6.4 -15.8°
